Regional Weather Roundup
Issued by NWS

Home | Current Version | Previous Version | Graphics & Text | Print | Product List | Glossary Off
Versions: 1 2 3 4 5 6 7 8 9 10 11 12 13 14 15 16 17 18 19 20 21 22 23 24 25 26 27 28 29 30 31 32 33 34 35 36 37 38 39 40 41 42 43 44 45 46 47 48 49 50

000
ASUS43 KDTX 101610
RWRMI
MICHIGAN HOURLY REGIONAL WEATHER ROUNDUP
NATIONAL WEATHER SERVICE DETROIT/PONTIAC MI
1200 PM EDT THU JUL 10 2014

NOTE: "FAIR" INDICATES FEW OR NO CLOUDS BELOW 12,000 FEET WITH NO
SIGNIFICANT WEATHER AND/OR OBSTRUCTION TO VISIBILITY.

MIZ047>049-052>055-059>063-066>070-074>076-081>083-101700-
SOUTHEAST LOWER MICHIGAN

CITY           SKY/WX    TMP DP  RH WIND       PRES   REMARKS
ADRIAN         MOSUNNY   71  53  52 CALM      30.17R
ALMA           SUNNY     68  45  43 NE7       30.20R
ANN ARBOR      PTSUNNY   71  53  52 CALM      30.16R
BAD AXE        SUNNY     65  53  63 NE5       30.20S
DETROIT CITY   MOSUNNY   75  55  49 NE6       30.15S
DETROIT        CLOUDY    73  54  51 CALM      30.15S
FLINT          PTSUNNY   72  55  55 N10       30.17S
GROSSE ILE     MOSUNNY   75  57  53 E6        30.14S
HILLSDALE      MOSUNNY   70  53  53 N3        30.18R
HOWELL         PTSUNNY   69  55  60 NW3       30.17S

CITY           SKY/WX    TMP DP  RH WIND       PRES   REMARKS
JACKSON        PTSUNNY   71  56  58 VRB3      30.18R
LAMBERTVILLE   CLOUDY    75  55  50 E5        30.15S
LANSING        MOSUNNY   70  54  56 N6        30.19R
LAPEER         NOT AVBL
MASON          PTSUNNY   68  56  64 N7        30.18R
MONROE         PTSUNNY   75  55  50 E3        30.14R
MT. CLEMENS    MOSUNNY   72  56  57 E7        30.15R
PONTIAC        PTSUNNY   70  54  56 N8        30.16R
PORT HOPE        N/A     60  50  69 NE10      30.20R
PORT HURON     CLOUDY    70  59  68 N3        30.16S
TRI CITIES     MOSUNNY   70  52  52 N5        30.20R
YPSILANTI      MOSUNNY   76  54  46 N5        30.16R
$$
MIZ043>046-050>051-056>058-064>065-071>073-077>080-101700-
SOUTHWEST LOWER MICHIGAN

CITY           SKY/WX    TMP DP  RH WIND       PRES   REMARKS
BATTLE CREEK   PTSUNNY   69  54  58 NE7       30.20R
BENTON HARBOR  SUNNY     69  51  52 VRB6      30.20R
BIG RAPIDS     SUNNY     68  47  47 CALM      30.19S
COLDWATER      MOSUNNY   70  55  59 E3        30.18S
HOLLAND        SUNNY     73  53  49 E6        30.20R
GRAND RAPIDS   MOSUNNY   70  54  56 VRB3      30.20R
KALAMAZOO      MOSUNNY   71  51  49 VRB6      30.20R
MARSHALL       PTSUNNY   67  55  63 NE5       30.18R
MUSKEGON       MOSUNNY   72  49  44 N6        30.20R
$$
MIZ016>042-101700-
NORTHERN LOWER MICHIGAN

CITY           SKY/WX    TMP DP  RH WIND       PRES   REMARKS
ALPENA         SUNNY     68  46  45 N6        30.19S
BEAVER ISLAND  SUNNY     66  51  58 SW7       30.20R
BELLAIRE       SUNNY     67  46  46 CALM      30.19S
CADILLAC       SUNNY     66  45  47 N7        30.20R
CHARLEVOIX     SUNNY     66  47  50 N6        30.23R
FRANKFORT      MOSUNNY   67  52  57 CALM      30.19R
GAYLORD        SUNNY     64  44  48 E5        30.20S
GRAYLING       SUNNY     66  42  42 N6        30.21R
HARBOR SPRINGS SUNNY     64  52  65 SW6       30.19S
HOUGHTON LAKE  SUNNY     67  43  41 N6        30.21R
MANISTEE       SUNNY     66  48  52 CALM      30.20S
OSCODA         SUNNY     67  47  49 E8        30.20R
PELLSTON       SUNNY     69  47  45 N6        30.20R
TRAVERSE CITY  MOSUNNY   67  40  37 NE6       30.19R
$$
MIZ007>008-015-101700-
EASTERN UPPER MICHIGAN

CITY           SKY/WX    TMP DP  RH WIND       PRES   REMARKS
KINROSS        SUNNY     66  46  48 CALM      30.18F
MACKINAC ISLAN SUNNY     62  51  68 SW3       30.20R
NEWBERRY       SUNNY     67  51  54 S5        30.17F
S. S. MARIE    SUNNY     67  47  48 CALM      30.18R
$$
MIZ004>006-011>014-085-101700-
CENTRAL UPPER MICHIGAN

CITY           SKY/WX    TMP DP  RH WIND       PRES   REMARKS
MANISTIQUE     SUNNY     64  54  70 S9        30.19R
ESCANABA       SUNNY     64  55  72 S10       30.17R
MENOMINEE      MOSUNNY   68  55  64 S7        30.16S
SAWYER-GWINN   SUNNY     68  48  49 SW7       30.15S
$$
MIZ001>003-009>011-084-101700-
WESTERN UPPER MICHIGAN

CITY           SKY/WX    TMP DP  RH WIND       PRES   REMARKS
IRON MOUNTAIN  SUNNY     70  46  42 VRB3      30.15S
HOUGHTON       SUNNY     70  48  45 S7        30.12R
COPPER HARBOR    N/A     64  46  52 E3        30.11S
$$

ABBREVIATIONS USED IN REMARKS
   TC - TEMPERATURE IN CELSIUS
  WCI - WIND CHILL INDEX
   HX - HEAT INDEX
  VSB - VISIBILITY




USA.gov is the U.S. government's official web portal to all federal, state and local government web resources and services.